Home > Weather > Achim > Past weeks

Flag for Germany Weather for the Past 2 Weeks in Achim, Lower Saxony, Germany

Now
45 °F

Light rain. Passing clouds.


Feels Like: 35 °F
Forecast: 38 / 43 °F
Wind: 26 mph from Southwest

Location: Bremen Airport

Current Time: Feb 9, 2016 at 4:52:44 AM

Latest Report: Feb 9, 2016 at 4:20 AM


Visibility: N/A

Pressure: 29.27 "Hg

Humidity: 81%

Dew point: 39 °F

Location of AchimLocation

Historic Weather in Achim — Graph

°F

Achim Temperature Yesterday

Maximum temperature yesterday: 50 °F (at 11:50 AM)
Minimum temperature yesterday: 43 °F (at 12:20 AM)
Average temperature yesterday: 46 °F

High & Low Weather Summary for the Past Weeks

 TemperatureHumidityPressure
High54 °F (Jan 25, 2:50 PM)100% (Jan 25, 3:20 AM)30.27 "Hg (Jan 25, 3:20 AM)
Low32 °F (Feb 4, 10:50 PM)61% (Feb 3, 1:20 PM)29.12 "Hg (Feb 8, 1:50 PM)
Average45 °F83%29.84 "Hg
* Reported Jan 25 3:20 AM — Feb 9 3:20 AM, Achim, Weather by CustomWeather, © 2016

Note: Actual official high and low records may vary slightly from our data, if they occured in-between our weather recording intervals... More about our weather records

Advertising

Achim Weather History for the Previous 24 Hours

 ConditionsComfort  
Time TempWeatherWind HumidityBarometerVisibility
3:20 AM
Tue, Feb 9
45 °FLight rain. Passing clouds.30 mph87%29.24 "HgN/A
2:50 AM45 °FLight rain. Passing clouds.23 mph87%29.21 "HgN/A
2:20 AM41 °FSprinkles. Passing clouds.16 mph93%29.24 "HgN/A
1:50 AM41 °FSprinkles. Passing clouds.26 mph93%29.21 "HgN/A
1:20 AM41 °FSprinkles. Passing clouds.24 mph93%29.21 "Hg5 mi
12:50 AM41 °FSprinkles. Passing clouds.15 mph93%29.21 "HgN/A
12:20 AM41 °FSprinkles. Passing clouds.21 mph93%29.18 "HgN/A
11:50 PM
Mon, Feb 8
43 °FSprinkles. Passing clouds.28 mph93%29.18 "Hg5 mi
11:20 PM45 °FSprinkles. Passing clouds.26 mph81%29.15 "HgN/A
10:50 PM45 °FLight rain. Passing clouds.25 mph87%29.15 "HgN/A
10:20 PM45 °FLight rain. Passing clouds.28 mph81%29.15 "HgN/A
9:50 PM45 °FLight rain. Passing clouds.24 mph87%29.15 "HgN/A
9:20 PM45 °FLight rain. Passing clouds.25 mph87%29.15 "HgN/A
8:50 PM45 °FLight rain. Passing clouds.25 mph81%29.15 "HgN/A
8:20 PM45 °FLight rain. Passing clouds.24 mph81%29.15 "HgN/A
7:50 PM46 °FLight rain. Passing clouds.24 mph71%29.12 "HgN/A
7:20 PM46 °FPassing clouds.21 mph66%29.12 "HgN/A
6:50 PM46 °FPassing clouds.23 mph66%29.15 "HgN/A
6:20 PM46 °FPartly cloudy.20 mph71%29.15 "HgN/A
5:50 PM46 °FPartly cloudy.20 mph71%29.15 "HgN/A
5:20 PM48 °FBroken clouds.18 mph66%29.12 "HgN/A
4:50 PM48 °FPartly sunny.16 mph66%29.12 "HgN/A
4:20 PM46 °FSprinkles. Scattered clouds.16 mph82%29.15 "HgN/A
3:50 PM48 °FSprinkles. Scattered clouds.18 mph71%29.12 "HgN/A
3:20 PM50 °FScattered clouds.21 mph62%29.12 "HgN/A
2:50 PM48 °FSprinkles. Scattered clouds.18 mph76%29.12 "HgN/A
2:20 PM50 °FPartly sunny.17 mph71%29.12 "HgN/A
1:50 PM48 °FScattered clouds.16 mph71%29.12 "HgN/A
1:20 PM46 °FScattered clouds.18 mph76%29.15 "HgN/A
12:50 PM46 °FPassing clouds.18 mph82%29.15 "HgN/A
12:20 PM48 °FSprinkles. Partly sunny.23 mph76%29.15 "HgN/A
11:50 AM50 °FPartly sunny.22 mph76%29.15 "HgN/A
11:20 AM48 °FPartly sunny.21 mph82%29.15 "HgN/A
10:50 AM48 °FPartly sunny.21 mph82%29.15 "HgN/A
10:20 AM48 °FBroken clouds.22 mph82%29.15 "HgN/A
9:50 AM46 °FBroken clouds.23 mph87%29.15 "HgN/A
9:20 AM46 °FPartly sunny.24 mph87%29.15 "HgN/A
8:50 AM46 °FLight rain. Partly sunny.24 mph82%29.18 "HgN/A
8:20 AM45 °FLight rain. Partly sunny.28 mph87%29.18 "HgN/A
7:50 AM45 °FLight rain. Passing clouds.24 mph87%29.21 "HgN/A
7:20 AM46 °FLight rain. Passing clouds.21 mph76%29.21 "HgN/A
6:50 AM45 °FLight rain. Passing clouds.21 mph81%29.21 "HgN/A
6:20 AM46 °FLight rain. Passing clouds.23 mph71%29.24 "HgN/A
5:50 AM46 °FPassing clouds.23 mph71%29.24 "HgN/A
5:20 AM46 °FPassing clouds.23 mph66%29.27 "HgN/A
4:20 AM45 °FPassing clouds.21 mph71%29.33 "HgN/A
Weather by CustomWeather, © 2016

See weather overviewHow to use our weather pages